Flag for U.S.A. Weather past 2 weeks in St. Petersburg, Florida, U.S.A.

Now
78 °F

Mostly cloudy.


Feels Like: 81 °F
Forecast: 77 / 82 °F
Wind: 6 mph from Northeast

Location: Whitted Airport

Current Time: Sep 17, 2014 at 5:58:59 AM

Latest Report: Sep 17, 2014 at 4:53 AM


Visibility: 10 mi

Pressure: 29.91 "Hg

Humidity: 87%

Dew point: 74 °F

Location of St. PetersburgLocation

Historic Weather in St. Petersburg — Graph

°F

St. Petersburg temperature yesterday

Maximum temperature yesterday: 86 °F (at 11:53 AM)
Minimum temperature yesterday: 79 °F (at 5:53 PM)
Average temperature yesterday: 82 °F

Past Weeks' High & Low Weather Summary

 TemperatureHumidityPressure
High94 °F (Sep 3, 4:53 PM)90% (Sep 3, 7:53 PM)30.15 "Hg (Sep 3, 7:53 PM)
Low77 °F (Sep 3, 7:53 PM)41% (Sep 3, 4:53 PM)29.89 "Hg (Sep 12, 6:01 PM)
Average83 °F73%30.02 "Hg
* Reported Sep 2 3:53 AM — Sep 17 3:53 AM, St. Petersburg, Weather by CustomWeather, © 2014

Note: Actual official high and low records may vary slightly from our data, if they occured in-between our weather recording intervals... More about our weather records

Advertising

St. Petersburg weather history for previous 24 hours

 ConditionsComfort  
Time TempWeatherWind HumidityBarometerVisibility
3:53 AM
Sep 17
78 °FOvercast.9 mph84%29.92 "Hg10 mi
2:53 AM82 °FClear.3 mph72%29.93 "Hg10 mi
1:53 AM81 °FClear.5 mph74%29.96 "Hg10 mi
12:53 AM82 °FClear.No wind72%29.97 "Hg10 mi
11:53 PM
Sep 16
81 °FClear.3 mph72%29.98 "Hg10 mi
10:53 PM81 °FClear.No wind72%30.00 "Hg10 mi
9:53 PM80 °FPassing clouds.3 mph74%30.01 "Hg10 mi
8:53 PM80 °FClear.6 mph79%30.00 "Hg10 mi
7:53 PM80 °FScattered clouds.6 mph79%29.99 "Hg10 mi
6:53 PM80 °FSunny.7 mph74%29.97 "Hg10 mi
5:53 PM79 °FPassing clouds.9 mph79%29.98 "Hg10 mi
4:53 PM80 °FOvercast.15 mph74%29.99 "Hg10 mi
3:53 PM86 °FBroken clouds.14 mph65%29.99 "Hg10 mi
2:53 PM86 °FSunny.No wind63%30.01 "Hg10 mi
1:53 PM85 °FBroken clouds.No wind59%30.04 "Hg10 mi
12:53 PM85 °FLight rain. Cloudy.8 mph72%30.06 "Hg9 mi
11:53 AM86 °FPartly sunny.7 mph67%30.07 "Hg10 mi
10:53 AM85 °FPassing clouds.5 mph68%30.07 "Hg10 mi
9:53 AM84 °FSunny.6 mph72%30.06 "Hg10 mi
8:53 AM82 °FSunny.3 mph79%30.06 "Hg10 mi
7:53 AM81 °FClear.No wind77%30.06 "Hg10 mi
6:53 AM81 °FClear.No wind79%30.06 "Hg10 mi
5:53 AM82 °FClear.No wind77%30.07 "Hg10 mi
Weather by CustomWeather, © 2014

See weather overviewHow to use our weather pages